THY215 SBGR-SCEL

Flight info

Callsign THY215
Flight time N/A
Altitude 40000
Route UBSOD UZ38 ARTUT UM400 CBA UZ105 UMKAL UMKAL7C
Aircraft A359/H-SDE2E3GHIJ3J4J5LM1ORWXY/LB1D1

Departure

Time N/A
Airport São Paulo/Guarulhos–Governor André Franco Montoro International Airport (SBGR)

Arrival

Time 2026-04-30 14:36
Airport Comodoro Arturo Merino Benítez International Airport (SCEL)
Time Latitude Longitude Altitude Speed Heading
2026-04-30 13:52 -31.69407 -65.29429 39980 ft 444 kts 253°
2026-04-30 13:52 -31.71715 -65.36157 39976 ft 444 kts 253°
2026-04-30 13:53 -31.74019 -65.42884 39977 ft 444 kts 253°
2026-04-30 13:53 -31.76073 -65.48891 39996 ft 444 kts 253°
2026-04-30 13:54 -31.78371 -65.55626 39984 ft 444 kts 253°
2026-04-30 13:54 -31.80669 -65.62371 39984 ft 444 kts 253°
2026-04-30 13:55 -31.82963 -65.69119 39980 ft 444 kts 253°
2026-04-30 13:55 -31.85253 -65.75871 39979 ft 444 kts 253°
2026-04-30 13:56 -31.87540 -65.82629 39981 ft 444 kts 253°
2026-04-30 13:56 -31.89824 -65.89392 39981 ft 445 kts 253°
2026-04-30 13:57 -31.92105 -65.96157 39982 ft 445 kts 253°
2026-04-30 13:57 -31.94385 -66.02927 39974 ft 445 kts 253°
2026-04-30 13:58 -31.97783 -66.13085 39967 ft 445 kts 253°
2026-04-30 13:59 -32.00047 -66.19872 39965 ft 445 kts 253°
2026-04-30 13:59 -32.02293 -66.26616 39962 ft 445 kts 253°
2026-04-30 14:00 -32.04552 -66.33408 39958 ft 445 kts 253°
2026-04-30 14:00 -32.07918 -66.43560 39952 ft 444 kts 253°
2026-04-30 14:01 -32.10139 -66.50357 39945 ft 443 kts 256°
2026-04-30 14:01 -32.11912 -66.57290 39945 ft 441 kts 258°
2026-04-30 14:02 -32.13582 -66.64267 39938 ft 442 kts 258°
2026-04-30 14:02 -32.15230 -66.71256 39940 ft 442 kts 258°
2026-04-30 14:03 -32.16883 -66.78260 39933 ft 442 kts 258°
2026-04-30 14:03 -32.18524 -66.85210 39933 ft 442 kts 258°
2026-04-30 14:04 -32.20173 -66.92204 39928 ft 442 kts 258°
2026-04-30 14:04 -32.21866 -66.99404 39927 ft 442 kts 258°
2026-04-30 14:05 -32.23973 -67.08395 39925 ft 443 kts 258°
2026-04-30 14:05 -32.25611 -67.15406 39917 ft 443 kts 258°
2026-04-30 14:06 -32.28061 -67.25930 39914 ft 443 kts 258°
2026-04-30 14:07 -32.30502 -67.36461 39905 ft 443 kts 258°
2026-04-30 14:08 -32.32934 -67.46995 39899 ft 443 kts 258°
2026-04-30 14:08 -32.35350 -67.57502 39899 ft 443 kts 258°
2026-04-30 14:09 -32.36962 -67.64536 39894 ft 443 kts 258°
2026-04-30 14:10 -32.39369 -67.75077 39896 ft 442 kts 258°
2026-04-30 14:10 -32.40972 -67.82120 39895 ft 442 kts 258°
2026-04-30 14:11 -32.42568 -67.89156 39898 ft 442 kts 258°
2026-04-30 14:11 -32.44151 -67.96149 39898 ft 442 kts 258°
2026-04-30 14:12 -32.53487 -68.37721 39788 ft 442 kts 258°
2026-04-30 14:12 -32.54270 -68.41200 39889 ft 443 kts 259°
2026-04-30 14:12 -32.55041 -68.44726 39904 ft 442 kts 259°
2026-04-30 14:13 -32.56585 -68.51769 39903 ft 441 kts 259°
2026-04-30 14:13 -32.58131 -68.58800 39900 ft 441 kts 259°
2026-04-30 14:14 -32.59677 -68.65836 39895 ft 441 kts 259°
2026-04-30 14:14 -32.65084 -68.90558 39906 ft 441 kts 259°
2026-04-30 14:15 -32.68314 -69.05476 39884 ft 441 kts 259°
2026-04-30 14:15 -32.69839 -69.12548 39888 ft 443 kts 259°
2026-04-30 14:16 -32.71355 -69.19589 39887 ft 443 kts 259°
2026-04-30 14:16 -32.73622 -69.30159 39553 ft 437 kts 259°
2026-04-30 14:16 -32.76726 -69.44645 36023 ft 456 kts 260°
2026-04-30 14:17 -32.77495 -69.48323 34905 ft 463 kts 260°
2026-04-30 14:17 -32.78288 -69.52081 33910 ft 471 kts 260°
2026-04-30 14:17 -32.79090 -69.55883 32897 ft 476 kts 260°
2026-04-30 14:17 -32.79895 -69.59693 32079 ft 475 kts 259°
2026-04-30 14:18 -32.80698 -69.63498 31422 ft 473 kts 259°
2026-04-30 14:18 -32.81498 -69.67284 30824 ft 469 kts 259°
2026-04-30 14:18 -32.83067 -69.74751 29605 ft 459 kts 259°
2026-04-30 14:19 -32.85448 -69.86097 26230 ft 420 kts 259°
2026-04-30 14:19 -32.86135 -69.89376 25744 ft 395 kts 259°
2026-04-30 14:19 -32.86780 -69.92456 25261 ft 373 kts 259°
2026-04-30 14:20 -32.87391 -69.95396 24792 ft 364 kts 259°
2026-04-30 14:20 -32.87972 -69.98343 24331 ft 370 kts 262°
2026-04-30 14:20 -32.87982 -70.04470 23440 ft 364 kts 277°
2026-04-30 14:21 -32.87697 -70.07444 22732 ft 365 kts 277°
2026-04-30 14:21 -32.87399 -70.10488 22206 ft 373 kts 277°
2026-04-30 14:21 -32.86823 -70.16597 21145 ft 369 kts 277°
2026-04-30 14:22 -32.86541 -70.19627 20630 ft 367 kts 277°
2026-04-30 14:22 -32.85980 -70.25654 19613 ft 371 kts 277°
2026-04-30 14:22 -32.85694 -70.28699 19048 ft 369 kts 277°
2026-04-30 14:23 -32.85134 -70.34707 18071 ft 361 kts 277°
2026-04-30 14:23 -32.84584 -70.40612 16941 ft 357 kts 277°
2026-04-30 14:24 -32.84036 -70.46477 15924 ft 356 kts 278°
2026-04-30 14:24 -32.83762 -70.49397 15425 ft 355 kts 278°
2026-04-30 14:25 -32.83211 -70.55201 14421 ft 350 kts 279°
2026-04-30 14:25 -32.82672 -70.60926 13400 ft 346 kts 279°
2026-04-30 14:26 -32.82143 -70.66545 12677 ft 333 kts 278°
2026-04-30 14:26 -32.82268 -70.69220 12435 ft 328 kts 259°
2026-04-30 14:26 -32.84789 -70.73423 11212 ft 313 kts 226°
2026-04-30 14:27 -32.86391 -70.75125 10663 ft 306 kts 225°
2026-04-30 14:27 -32.87974 -70.76817 10208 ft 306 kts 226°
2026-04-30 14:27 -32.89545 -70.78514 9758 ft 305 kts 226°
2026-04-30 14:28 -32.93048 -70.81271 8878 ft 307 kts 195°
2026-04-30 14:28 -32.95145 -70.81693 8411 ft 305 kts 188°
2026-04-30 14:28 -32.97260 -70.81982 8104 ft 306 kts 187°
2026-04-30 14:28 -32.99364 -70.82268 7788 ft 303 kts 187°
2026-04-30 14:29 -33.02845 -70.82309 7135 ft 299 kts 178°
2026-04-30 14:29 -33.06979 -70.82061 6445 ft 291 kts 177°
2026-04-30 14:30 -33.13569 -70.81639 5259 ft 281 kts 178°
2026-04-30 14:31 -33.15692 -70.81522 5027 ft 278 kts 178°
2026-04-30 14:32 -33.17032 -70.81450 4987 ft 268 kts 178°
2026-04-30 14:32 -33.18824 -70.81354 4987 ft 245 kts 178°
2026-04-30 14:32 -33.20454 -70.81267 4849 ft 225 kts 178°
2026-04-30 14:33 -33.21959 -70.81189 4570 ft 206 kts 178°
2026-04-30 14:33 -33.24580 -70.81049 3965 ft 173 kts 178°
2026-04-30 14:33 -33.25728 -70.80987 3757 ft 159 kts 178°
2026-04-30 14:34 -33.26822 -70.80928 3553 ft 157 kts 178°
2026-04-30 14:34 -33.27899 -70.80871 3356 ft 151 kts 178°
2026-04-30 14:34 -33.28914 -70.80816 3163 ft 142 kts 178°
2026-04-30 14:34 -33.29890 -70.80764 2981 ft 140 kts 178°
2026-04-30 14:35 -33.34594 -70.80510 2090 ft 137 kts 178°
2026-04-30 14:35 -33.35902 -70.80441 1842 ft 136 kts 178°
2026-04-30 14:35 -33.36846 -70.80390 1681 ft 136 kts 178°
2026-04-30 14:36 -33.37787 -70.80340 1581 ft 132 kts 178°
2026-04-30 14:36 -33.38546 -70.80303 1579 ft 74 kts 177°
2026-04-30 14:36 -33.38994 -70.80279 1580 ft 59 kts 177°
2026-04-30 14:36 -33.39357 -70.80259 1578 ft 45 kts 177°
2026-04-30 14:37 -33.39620 -70.80246 1578 ft 34 kts 178°
2026-04-30 14:37 -33.39839 -70.80231 1579 ft 31 kts 173°
2026-04-30 14:37 -33.40022 -70.80120 1576 ft 31 kts 149°
2026-04-30 14:37 -33.40173 -70.79952 1572 ft 20 kts 103°
2026-04-30 14:38 -33.40150 -70.79816 1571 ft 14 kts 53°
2026-04-30 14:38 -33.40091 -70.79798 1571 ft 7 kts 359°
2026-04-30 14:38 -33.40082 -70.79798 1571 ft 0 kts 359°